Location: Im Fang
(46.6019°N, 7.2397°E)
Time: 02:16:51
(UTC+00:00)

Envisat - Pass Details

Date: 08 March 2021
Orbit: 764 x 766 km, 98.1° (Epoch: 18 April)

Event Time Altitude Azimuth Distance (km) Brightness Sun altitude
Rises 03:33:45 0° 35° (NE) 3,242 7.1 -25.1°
Reaches altitude 10° 03:38:53 10° 80° (E) 2,306 6.5 -24.3°
Maximum altitude 03:39:21 10° 85° (E) 2,298 6.5 -24.2°
Drops below altitude 10° 03:39:49 10° 90° (E) 2,304 6.4 -24.1°
Sets 03:44:54 0° 135° (SE) 3,221 6.6 -23.3°
